Location: ?
(35.4064°N, 139.3593°E)
Time: 06:38:18
(UTC+00:00)

Hubble Space Telescope - Pass Details

Date: 17 December 2025
Orbit: 479 x 481 km, 28.5° (Epoch: 21 January)

Event Time Altitude Azimuth Distance (km) Brightness Sun altitude
Rises 09:01:18 0° 258° (WSW) 2,537 6.0 -17.7°
Reaches altitude 10° 09:04:03 10° 238° (WSW) 1,656 4.4 -18.2°
Maximum altitude 09:06:38 17° 196° (SSW) 1,262 3.0 -18.7°
Drops below altitude 10° 09:09:13 10° 153° (SSE) 1,653 3.1 -19.2°
Enters shadow 09:09:17 10° 152° (SSE) 1,672 3.1 -19.2°
